Tracking 29892 objects as of 21-Nov-2024
HD Live streaming from Space Station
objects crossing your sky now

ORBCOMM FM 30

Track ORBCOMM FM 30 now!
10-day predictions
ORBCOMM FM 30 is classified as:


NORAD ID: 25980
Int'l Code: 1999-065A
Perigee: 774.0 km
Apogee: 781.4 km
Inclination: 45.0 °
Period: 100.3 minutes
Semi major axis: 7148 km
RCS: 0.5967 m2 (medium)
Launch date: December 4, 1999
Source: ORBCOMM (ORB)
Launch site: AIR FORCE EASTERN TEST RANGE (AFETR)
Your satellite tracking list
Your tracking list is empty




NASA's NSSDC Master Catalog

Two Line Element Set (TLE):
1 25980U 99065A   24325.56001064  .00001915  00000-0  69610-3 0  9992
2 25980  45.0333 356.5806 0005184  23.2843 336.8239 14.36369259304444
Source of the keplerian elements: AFSPC